Location: Myrnam
(53.6612°N, 111.2289°W)
Time: 14:24:32
(UTC+00:00)

Envisat - Pass Details

Date: 07 June 2023
Orbit: 763 x 764 km, 98.2° (Epoch: 26 September)

Event Time Altitude Azimuth Distance (km) Brightness Sun altitude
Rises 09:55:25 0° 26° (NNE) 3,242 8.5 -6.9°
Reaches altitude 10° 09:58:39 10° 48° (NE) 2,310 7.1 -6.6°
Maximum altitude 10:01:46 16° 86° (E) 1,915 5.7 -6.3°
Drops below altitude 10° 10:04:51 10° 124° (SE) 2,300 5.5 -6.1°
Sets 10:08:03 0° 145° (SE) 3,221 6.0 -5.8°
